Flag for Canada Weather past 2 weeks in Fort St. John, British Columbia, Canada

Now
34 °F

Overcast.


Feels Like: 28 °F
Forecast: 33 / 48 °F
Wind: 7 mph from West

Location: Fort St John

Current Time: Mar 28, 2015 at 5:51:13 AM

Latest Report: Mar 28, 2015 at 5:00 AM


Visibility: 15 mi

Pressure: 29.72 "Hg

Humidity: 75%

Dew point: 27 °F

Location of Fort St. JohnLocation

Historic Weather in Fort St. John — Graph

°F

Fort St. John temperature yesterday

Maximum temperature yesterday: 52 °F (at 2:00 PM)
Minimum temperature yesterday: 37 °F (at 6:00 AM)
Average temperature yesterday: 43 °F

Past Weeks' High & Low Weather Summary

 TemperatureHumidityPressure
High55 °F (Mar 13, 1:00 PM)100% (Mar 25, 2:00 AM)30.43 "Hg (Mar 25, 2:00 AM)
Low14 °F (Mar 23, 5:00 AM)34% (Mar 18, 4:00 PM)29.15 "Hg (Mar 14, 4:00 PM)
Average32 °F71%30.01 "Hg
* Reported Mar 13 4:00 AM — Mar 28 4:00 AM, Fort St. John, Weather by CustomWeather, © 2015

Note: Actual official high and low records may vary slightly from our data, if they occured in-between our weather recording intervals... More about our weather records

Advertising

Fort St. John weather history for previous 24 hours

 ConditionsComfort  
Time TempWeatherWind HumidityBarometerVisibility
4:00 AM
Sat, Mar 28
36 °FOvercast.7 mph70%29.71 "Hg15 mi
3:00 AM37 °FOvercast.10 mph70%29.69 "Hg15 mi
2:00 AM37 °FPassing clouds.10 mph70%29.69 "Hg15 mi
1:00 AM37 °FPassing clouds.8 mph70%29.69 "Hg15 mi
12:00 AM39 °FPassing clouds.10 mph70%29.70 "Hg15 mi
11:00 PM
Fri, Mar 27
41 °FOvercast.9 mph66%29.70 "Hg15 mi
10:00 PM41 °FOvercast.8 mph66%29.70 "Hg15 mi
9:00 PM43 °FOvercast.7 mph61%29.70 "Hg15 mi
8:00 PM43 °FOvercast.6 mph61%29.70 "Hg15 mi
7:00 PM46 °FOvercast.7 mph53%29.70 "Hg15 mi
6:00 PM48 °FOvercast.7 mph54%29.71 "Hg15 mi
5:00 PM50 °FMore clouds than sun.10 mph50%29.72 "Hg15 mi
4:00 PM52 °FPartly sunny.7 mph50%29.72 "Hg15 mi
3:00 PM52 °FPartly sunny.6 mph54%29.74 "Hg15 mi
2:00 PM52 °FPartly sunny.9 mph50%29.76 "Hg15 mi
1:00 PM48 °FPartly sunny.8 mph66%29.80 "Hg15 mi
12:00 PM46 °FPartly sunny.9 mph76%29.81 "Hg15 mi
11:00 AM43 °FBroken clouds.8 mph87%29.83 "Hg15 mi
10:00 AM41 °FMostly cloudy.9 mph93%29.85 "Hg15 mi
9:00 AM39 °FPartly sunny.10 mph93%29.86 "Hg15 mi
8:00 AM37 °FSprinkles. Mostly cloudy.8 mph93%29.87 "Hg10 mi
7:00 AM37 °FSprinkles. Mostly cloudy.8 mph93%29.88 "Hg10 mi
6:00 AM37 °FSprinkles. Overcast.8 mph87%29.88 "Hg15 mi
5:00 AM39 °FSprinkles. Overcast.7 mph75%29.88 "Hg15 mi
Weather by CustomWeather, © 2015

See weather overviewHow to use our weather pages